User: anonymous   Login
Location: Unspecified
(0.0000°N, 0.0000°E)
Time: 09:31:30
(UTC+00:00)
Language:

SMS 2 - Orbit

View from above orbital plane
View from above orbital plane
View from above satellite
View from above satellite

Ground track
Ground track

The orbit data is extracted from the following two-line orbital elements,

1 07648U 75011A   17327.69017284 -.00000220  00000-0  00000+0 0  9990
2 07648  12.5252 319.8465 0010808 201.4767 314.0009  0.99515759104613
Epoch (UTC): 23 November 2017 16:33:50
Eccentricity: 0.0010808
inclination: 12.5252°
perigee height: 35953 km
apogee height: 36045 km
right ascension of ascending node: 319.8465°
argument of perigee: 201.4767°
revolutions per day: 0.99515759
mean anomaly at epoch: 314.0009°
orbit number at epoch: 10461

The dashed part of the orbit path shows where the satellite is in the earth's shadow,  

DLR